Regional Weather Roundup
Issued by NWS

Home | Current Version | Previous Version | Text Only | Print | Product List | Glossary Off
Versions: 1 2 3 4 5 6 7 8 9 10 11 12 13 14 15 16 17 18 19 20 21 22 23 24 25 26 27 28 29 30 31 32 33 34 35 36 37 38 39 40 41 42 43 44 45 46 47 48 49 50

000
ASUS45 KCYS 040710
RWRWY

WYOMING REGIONAL WEATHER ROUNDUP
NATIONAL WEATHER SERVICE CHEYENNE WY
100 AM MDT MON MAY 04 2015

NOTE:  "FAIR" INDICATES FEW OR NO CLOUDS BELOW 12,000 FEET
WITH NO SIGNIFICANT WEATHER AND/OR OBSTRUCTIONS TO VISIBILITY.

WYZ001-040800-
YELLOWSTONE NATIONAL PARK

CITY           SKY/WX    TMP DP  RH WIND       PRES   REMARKS
LK YELLOWSTONE   N/A     30  28  92 CALM      30.12S
W YELLOWSTONE  NOT AVBL

$$
WYZ002>013-054>058-071-098>099-040800-
NORTHERN WYOMING

CITY           SKY/WX    TMP DP  RH WIND       PRES   REMARKS
JACKSON        FAIR      43  39  87 CALM      30.07R
CODY           FAIR      48  41  76 SW6       30.03R
GREYBULL       CLOUDY    60  38  43 NW6       29.98S
WORLAND        FAIR      52  42  69 S8        30.00S
SHERIDAN       FAIR      47  41  80 S9        30.01S
BUFFALO        CLOUDY    50  44  80 S12       30.07F
GILLETTE       LGT RAIN  48  46  93 SE7       30.07F
HULETT         FAIR      48  43  81 S9        30.09S
NEWCASTLE      LGT RAIN  46  41  81 NE7       30.11F

$$
WYZ014>020-022>026-101>103-040800-
CENTRAL WYOMING

CITY           SKY/WX    TMP DP  RH WIND       PRES   REMARKS
BIG PINEY      FAIR      36  34  92 N9        30.10F WCI  29
PINEDALE       PTSUNNY   36  36 100 NW6       30.11S WCI  31
DUBOIS         FAIR      37  34  87 SW7       30.08F WCI  32
LANDER         CLOUDY    51  39  63 N13       30.05R
RIVERTON       CLOUDY    50  41  71 N10       30.06S
CASPER         MOCLDY    47  45  93 NW3       30.06R
DOUGLAS        CLOUDY    51  49  92 E6        30.07R

$$
WYZ021-027>030-104>119-040800-
SOUTHERN WYOMING

CITY           SKY/WX    TMP DP  RH WIND       PRES   REMARKS
EVANSTON       FAIR      45  38  76 E6        30.08R
KEMMERER       FAIR      37  37 100 N7        30.10S WCI  32
FORT BRIDGER   PTSUNNY   43  41  93 NE6       30.12R
ROCK SPRINGS   CLOUDY    44  38  79 N5        30.08R
DIXON          FAIR      48  44  85 E13       30.10F
RAWLINS        FAIR      41  38  89 E6        30.09S
SARATOGA       PTSUNNY   43  37  81 MISG      30.12S
LARAMIE        CLOUDY    43  41  93 S10       30.11F
CHEYENNE       FAIR      48  41  76 E7        30.11S
TORRINGTON     FAIR      50  39  66 E14       30.05S
PINE BLUFFS    FAIR      46  41  81 CALM      30.10S

$$



USA.gov is the U.S. government's official web portal to all federal, state and local government web resources and services.